Terminal Aerodrome Forecast
Issued by NWS Omaha/Valley, NE

Home | Current Version | Previous Version | Text Only | Print | Product List | Glossary On
Versions: 1 2 3 4 5 6 7 8 9 10 11 12 13 14 15 16 17 18 19 20 21 22 23 24 25 26 27 28 29 30 31 32 33 34 35 36 37 38 39 40 41 42 43 44
000
FTUS43 KOAX 031546 AAA
TAFLNK
TAF AMD
KLNK 031546Z 0316/0412 21015KT P6SM SCT250
      TEMPO 0316/0318 5SM TSRA BKN025CB
     FM031800 21013G20KT P6SM SCT040 BKN250
     FM040000 18014KT P6SM SCT040 BKN100
     FM040600 04010KT P6SM BKN030=

USA.gov is the U.S. government's official web portal to all federal, state and local government web resources and services.